Total_Precipitation_Accumulation
0.52 0.37 0.37 0.45 0.43 0.45 0.60 0.65 0.60 0.38 0.30 0.34 0.33 0.33 0.32 0.31 0.30 0.29 0.30 0.36 0.41 0.44 0.47 0.54 0.56 0.57 0.64 0.71 0.74 0.83 0.93 0.90 0.88 0.94 0.96 0.94 1.00 1.03 1.10 1.17 1.17 1.13 1.09 1.08
0.57 0.37 0.34 0.36 0.31 0.33 0.39 0.39 0.36 0.29 0.31 0.31 0.30 0.29 0.27 0.28 0.33 0.33 0.34 0.40 0.45 0.47 0.51 0.59 0.66 0.74 0.82 0.90 0.92 0.96 1.06 1.07 0.96 0.92 0.93 0.95 0.97 0.99 1.02 1.06 1.07 1.06 1.03 1.02
0.82 0.45 0.60 0.64 0.41 0.37 0.37 0.38 0.37 0.38 0.35 0.29 0.27 0.27 0.28 0.29 0.32 0.36 0.36 0.39 0.44 0.48 0.54 0.64 0.76 0.89 1.00 1.00 0.98 1.04 1.08 1.14 1.10 0.97 0.92 0.93 0.92 0.92 0.92 0.93 0.97 0.96 0.96 0.99
1.14 0.84 1.08 0.60 0.31 0.32 0.33 0.35 0.36 0.36 0.33 0.31 0.31 0.28 0.26 0.26 0.29 0.33 0.38 0.44 0.49 0.55 0.57 0.65 0.79 0.91 0.98 1.01 1.02 1.08 1.12 1.10 1.06 0.97 0.88 0.89 0.92 0.89 0.81 0.80 0.86 0.90 0.92 0.93
1.42 1.10 0.64 0.27 0.21 0.31 0.38 0.42 0.39 0.36 0.32 0.29 0.27 0.24 0.24 0.26 0.28 0.34 0.40 0.46 0.52 0.55 0.56 0.62 0.71 0.82 0.86 0.88 0.90 0.96 1.03 1.02 0.99 0.94 0.89 0.91 0.94 0.90 0.81 0.78 0.79 0.81 0.83 0.88
1.57 1.25 0.63 0.26 0.16 0.22 0.36 0.47 0.35 0.32 0.33 0.33 0.33 0.49 0.37 0.32 0.28 0.28 0.30 0.34 0.43 0.50 0.48 0.51 0.61 0.67 0.70 0.74 0.76 0.79 0.85 0.89 0.95 0.90 0.88 0.93 0.95 0.92 0.87 0.84 0.85 0.87 0.86 0.91
1.35 1.18 0.53 0.23 0.15 0.20 0.52 0.62 0.37 0.34 0.36 0.41 0.53 0.60 0.42 0.32 0.30 0.29 0.29 0.30 0.33 0.41 0.48 0.53 0.62 0.65 0.67 0.68 0.72 0.72 0.72 0.76 0.87 0.90 0.88 0.90 0.92 0.95 0.94 0.93 0.94 0.96 0.94 0.92
1.06 1.27 0.68 0.25 0.23 0.44 0.61 0.42 0.35 0.36 0.39 0.48 0.45 0.35 0.30 0.31 0.32 0.30 0.29 0.29 0.33 0.39 0.50 0.59 0.63 0.62 0.60 0.64 0.67 0.65 0.68 0.71 0.77 0.86 0.86 0.88 0.90 0.88 0.88 0.94 1.00 1.01 1.01 0.98
0.81 0.75 0.46 0.34 0.40 0.44 0.42 0.43 0.43 0.51 0.52 0.49 0.46 0.40 0.37 0.35 0.32 0.31 0.31 0.32 0.36 0.40 0.48 0.56 0.58 0.56 0.58 0.62 0.62 0.62 0.65 0.70 0.75 0.83 0.84 0.83 0.83 0.84 0.81 0.82 0.90 0.97 0.99 1.01
0.59 0.44 0.33 0.30 0.27 0.28 0.31 0.40 0.46 0.47 0.49 0.51 0.54 0.48 0.43 0.41 0.40 0.38 0.37 0.37 0.38 0.39 0.45 0.50 0.50 0.52 0.59 0.62 0.61 0.59 0.67 0.74 0.78 0.83 0.86 0.83 0.77 0.77 0.78 0.83 0.97 1.06 1.03 1.02
0.47 0.36 0.30 0.29 0.29 0.30 0.32 0.33 0.32 0.33 0.37 0.48 0.55 0.51 0.43 0.43 0.45 0.47 0.47 0.45 0.44 0.45 0.48 0.48 0.44 0.45 0.56 0.64 0.65 0.65 0.66 0.73 0.79 0.83 0.85 0.83 0.78 0.78 0.82 0.86 1.07 1.33 1.28 1.24
0.44 0.34 0.35 0.35 0.31 0.31 0.35 0.34 0.34 0.36 0.37 0.39 0.43 0.45 0.41 0.43 0.45 0.47 0.49 0.51 0.48 0.46 0.43 0.42 0.40 0.42 0.50 0.58 0.63 0.65 0.66 0.70 0.76 0.85 0.88 0.84 0.79 0.80 0.84 0.85 0.93 0.97 1.02 1.14
0.35 0.30 0.29 0.29 0.27 0.26 0.29 0.33 0.36 0.38 0.38 0.35 0.34 0.36 0.40 0.45 0.46 0.46 0.48 0.49 0.48 0.44 0.43 0.42 0.41 0.43 0.50 0.56 0.60 0.65 0.69 0.71 0.74 0.78 0.82 0.83 0.80 0.78 0.80 0.79 0.79 0.81 0.84 0.92
0.26 0.25 0.28 0.24 0.24 0.23 0.24 0.26 0.29 0.33 0.33 0.30 0.30 0.31 0.36 0.41 0.41 0.40 0.42 0.44 0.43 0.42 0.41 0.41 0.39 0.42 0.48 0.51 0.55 0.61 0.67 0.72 0.75 0.77 0.80 0.79 0.80 0.78 0.76 0.75 0.77 0.78 0.78 0.80
0.21 0.24 0.29 0.24 0.21 0.21 0.22 0.23 0.25 0.27 0.27 0.27 0.27 0.29 0.32 0.36 0.40 0.43 0.41 0.39 0.38 0.38 0.39 0.38 0.36 0.39 0.41 0.43 0.47 0.53 0.58 0.65 0.70 0.74 0.76 0.76 0.77 0.76 0.74 0.71 0.72 0.75 0.76 0.80
0.21 0.22 0.22 0.22 0.24 0.26 0.25 0.24 0.26 0.27 0.26 0.27 0.28 0.29 0.31 0.33 0.35 0.36 0.36 0.35 0.34 0.37 0.40 0.38 0.37 0.39 0.39 0.40 0.42 0.46 0.52 0.63 0.69 0.71 0.72 0.73 0.76 0.76 0.76 0.77 0.75 0.74 0.78 0.85
0.25 0.24 0.25 0.28 0.29 0.31 0.33 0.32 0.30 0.28 0.24 0.22 0.24 0.25 0.26 0.27 0.28 0.29 0.32 0.34 0.34 0.37 0.38 0.39 0.39 0.36 0.35 0.37 0.43 0.46 0.50 0.56 0.64 0.66 0.69 0.72 0.78 0.82 0.83 0.84 0.84 0.81 0.79 0.83
0.30 0.32 0.34 0.38 0.38 0.37 0.35 0.32 0.29 0.26 0.24 0.23 0.23 0.24 0.26 0.26 0.28 0.29 0.30 0.31 0.31 0.31 0.33 0.37 0.39 0.35 0.33 0.36 0.45 0.48 0.53 0.58 0.61 0.65 0.69 0.74 0.81 0.83 0.83 0.85 0.84 0.82 0.79 0.80
0.28 0.31 0.33 0.35 0.38 0.39 0.37 0.33 0.30 0.29 0.29 0.28 0.27 0.29 0.29 0.30 0.30 0.31 0.30 0.29 0.29 0.31 0.33 0.33 0.35 0.31 0.31 0.37 0.49 0.52 0.57 0.62 0.63 0.63 0.67 0.76 0.79 0.75 0.78 0.82 0.83 0.80 0.78 0.78
0.29 0.30 0.32 0.34 0.35 0.36 0.35 0.32 0.29 0.30 0.31 0.31 0.32 0.33 0.34 0.34 0.34 0.34 0.33 0.33 0.35 0.39 0.34 0.33 0.32 0.32 0.37 0.43 0.56 0.60 0.63 0.66 0.68 0.67 0.69 0.71 0.74 0.74 0.76 0.79 0.81 0.81 0.80 0.81
0.34 0.33 0.34 0.34 0.33 0.32 0.31 0.30 0.29 0.30 0.32 0.32 0.33 0.35 0.36 0.37 0.37 0.35 0.34 0.35 0.37 0.36 0.34 0.34 0.35 0.45 0.54 0.62 0.66 0.65 0.65 0.67 0.70 0.73 0.74 0.76 0.77 0.75 0.75 0.78 0.81 0.82 0.82 0.82
0.34 0.35 0.36 0.34 0.31 0.32 0.32 0.31 0.31 0.31 0.31 0.32 0.33 0.35 0.37 0.38 0.37 0.37 0.38 0.41 0.44 0.44 0.40 0.39 0.47 0.67 0.73 0.73 0.66 0.66 0.65 0.65 0.68 0.72 0.76 0.80 0.85 0.84 0.82 0.82 0.87 0.86 0.84 0.86
0.35 0.37 0.38 0.36 0.34 0.34 0.34 0.34 0.34 0.33 0.33 0.34 0.35 0.36 0.38 0.41 0.40 0.42 0.49 0.48 0.46 0.49 0.46 0.46 0.60 0.70 0.72 0.66 0.63 0.63 0.64 0.67 0.69 0.73 0.78 0.83 0.87 0.90 0.92 0.91 0.90 0.91 0.93 0.92
0.40 0.42 0.42 0.40 0.36 0.33 0.36 0.38 0.36 0.36 0.37 0.38 0.40 0.40 0.40 0.42 0.43 0.45 0.51 0.52 0.50 0.50 0.48 0.53 0.61 0.64 0.63 0.60 0.61 0.63 0.66 0.71 0.77 0.80 0.81 0.84 0.86 0.89 0.93 0.95 0.95 0.92 0.92 0.93
0.46 0.46 0.44 0.40 0.38 0.38 0.41 0.40 0.39 0.38 0.37 0.39 0.42 0.42 0.42 0.42 0.48 0.50 0.48 0.49 0.49 0.48 0.49 0.52 0.56 0.58 0.56 0.58 0.62 0.66 0.72 0.79 0.87 0.91 0.90 0.89 0.87 0.89 0.91 0.94 0.99 1.00 0.97 0.95
0.50 0.50 0.48 0.45 0.43 0.42 0.42 0.41 0.41 0.42 0.39 0.39 0.41 0.41 0.40 0.41 0.43 0.44 0.46 0.47 0.48 0.48 0.48 0.50 0.51 0.54 0.56 0.59 0.62 0.67 0.74 0.79 0.81 0.81 0.80 0.82 0.83 0.85 0.88 0.92 0.96 0.99 0.99 0.96
0.49 0.46 0.42 0.40 0.39 0.39 0.39 0.39 0.41 0.44 0.42 0.41 0.42 0.40 0.37 0.37 0.39 0.40 0.42 0.45 0.47 0.48 0.49 0.51 0.53 0.55 0.57 0.59 0.62 0.67 0.71 0.74 0.77 0.80 0.80 0.80 0.81 0.84 0.87 0.92 0.95 0.95 0.96 0.96